When you browse on this site, cookies collect data to enhance your experience and personalize the content and advertising you see.
Visit our Privacy Policy to learn more. By continuing to use the site, you agree to this use of cookies and data.
  • en France
  • Liste des pays
  • À 7 jours
  • Température de l'eau
  • Carte satellitaire
  • Carte météo
  • Widgets météo
  • user-avatar
    Se connecter

    Météo par heure à Tyldesley

    Ce jour, 22 Juillet, Lundi

    Heure Température Précipitation Vent Pression Humidité
    00:00 +19°C° 0 mm 6 m/s 756 mmHg 82%
    01:00 +19°C° 0.1 mm 6 m/s 756 mmHg 83%
    02:00 +19°C° 0.1 mm 5 m/s 756 mmHg 84%
    03:00 +20°C° 0.1 mm 5 m/s 756 mmHg 85%
    04:00 +20°C° 0 mm 4 m/s 756 mmHg 84%
    05:00 +20°C° 0 mm 4 m/s 756 mmHg 83%
    06:00 +20°C° 0 mm 4 m/s 757 mmHg 84%
    07:00 +21°C° 0 mm 4 m/s 757 mmHg 78%
    08:00 +22°C° 0 mm 5 m/s 757 mmHg 72%
    09:00 +23°C° 0 mm 6 m/s 758 mmHg 66%
    10:00 +24°C° 0 mm 6 m/s 758 mmHg 63%
    11:00 +26°C° 0 mm 6 m/s 758 mmHg 61%
    12:00 +26°C° 0 mm 7 m/s 758 mmHg 58%
    13:00 +27°C° 0 mm 6 m/s 758 mmHg 57%
    14:00 +27°C° 0 mm 6 m/s 758 mmHg 55%
    15:00 +27°C° 0 mm 6 m/s 758 mmHg 54%
    16:00 +27°C° 0 mm 5 m/s 758 mmHg 57%
    17:00 +26°C° 0 mm 5 m/s 758 mmHg 59%
    18:00 +26°C° 0 mm 4 m/s 758 mmHg 62%
    19:00 +25°C° 0 mm 4 m/s 759 mmHg 66%
    20:00 +22°C° 0 mm 4 m/s 759 mmHg 70%
    21:00 +21°C° 0 mm 3 m/s 760 mmHg 74%
    22:00 +20°C° 0 mm 3 m/s 759 mmHg 78%
    23:00 +20°C° 0 mm 3 m/s 759 mmHg 81%

    Demain, 23 Juillet, Mardi

    Heure Température Précipitation Vent Pression Humidité
    00:00 +19°C° 0 mm 2 m/s 759 mmHg 84%
    01:00 +19°C° 0 mm 2 m/s 759 mmHg 85%
    02:00 +18°C° 0 mm 2 m/s 759 mmHg 85%
    03:00 +18°C° 0 mm 2 m/s 759 mmHg 85%
    04:00 +18°C° 0 mm 2 m/s 759 mmHg 84%
    05:00 +19°C° 0 mm 2 m/s 759 mmHg 83%
    06:00 +19°C° 0 mm 2 m/s 759 mmHg 81%
    07:00 +20°C° 0 mm 2 m/s 759 mmHg 77%
    08:00 +23°C° 0 mm 2 m/s 759 mmHg 73%
    09:00 +25°C° 0 mm 3 m/s 759 mmHg 69%
    10:00 +26°C° 0 mm 3 m/s 758 mmHg 66%
    11:00 +27°C° 0 mm 3 m/s 758 mmHg 63%
    12:00 +28°C° 0 mm 4 m/s 758 mmHg 60%
    13:00 +29°C° 0 mm 4 m/s 757 mmHg 57%
    14:00 +29°C° 0 mm 4 m/s 757 mmHg 54%
    15:00 +29°C° 0 mm 4 m/s 756 mmHg 51%
    16:00 +29°C° 0 mm 4 m/s 756 mmHg 54%
    17:00 +29°C° 0 mm 3 m/s 755 mmHg 58%
    18:00 +29°C° 0 mm 3 m/s 755 mmHg 61%
    19:00 +28°C° 0 mm 3 m/s 755 mmHg 64%
    20:00 +27°C° 0 mm 4 m/s 754 mmHg 66%
    21:00 +26°C° 0 mm 4 m/s 754 mmHg 69%
    22:00 +25°C° 0.2 mm 4 m/s 754 mmHg 70%
    23:00 +25°C° 0.2 mm 4 m/s 753 mmHg 70%

    Après-demain, 24 Juillet, Mercredi

    Heure Température Précipitation Vent Pression Humidité
    00:00 +24°C° 0.2 mm 3 m/s 753 mmHg 71%
    01:00 +24°C° 0.6 mm 3 m/s 753 mmHg 74%
    02:00 +22°C° 0.6 mm 3 m/s 752 mmHg 78%
    03:00 +22°C° 0.6 mm 3 m/s 752 mmHg 82%
    04:00 +23°C° 0.4 mm 2 m/s 752 mmHg 83%
    05:00 +23°C° 0.4 mm 2 m/s 752 mmHg 84%
    06:00 +23°C° 0.4 mm 2 m/s 752 mmHg 84%
    07:00 +24°C° 0 mm 2 m/s 752 mmHg 81%
    08:00 +24°C° 0 mm 3 m/s 752 mmHg 78%
    09:00 +25°C° 0 mm 3 m/s 752 mmHg 75%
    10:00 +26°C° 0 mm 3 m/s 752 mmHg 73%
    11:00 +26°C° 0 mm 3 m/s 752 mmHg 70%
    12:00 +26°C° 0 mm 3 m/s 752 mmHg 68%
    13:00 +27°C° 0 mm 3 m/s 752 mmHg 64%
    14:00 +27°C° 0 mm 2 m/s 752 mmHg 59%
    15:00 +28°C° 0 mm 2 m/s 752 mmHg 55%
    16:00 +27°C° 0 mm 2 m/s 752 mmHg 57%
    17:00 +27°C° 0 mm 2 m/s 752 mmHg 59%
    18:00 +26°C° 0 mm 2 m/s 753 mmHg 61%
    19:00 +25°C° 0 mm 2 m/s 753 mmHg 63%
    20:00 +24°C° 0 mm 2 m/s 753 mmHg 64%
    21:00 +23°C° 0 mm 2 m/s 753 mmHg 65%
    22:00 +23°C° 0 mm 2 m/s 753 mmHg 68%
    23:00 +23°C° 0 mm 2 m/s 753 mmHg 70%

    25 Juillet, Jeudi

    Heure Température Précipitation Vent Pression Humidité
    00:00 +22°C° 0 mm 1 m/s 753 mmHg 73%
    01:00 +21°C° 0 mm 2 m/s 753 mmHg 76%
    02:00 +21°C° 0 mm 2 m/s 753 mmHg 79%
    03:00 +20°C° 0 mm 2 m/s 752 mmHg 82%
    04:00 +21°C° 0 mm 2 m/s 752 mmHg 80%
    05:00 +21°C° 0 mm 2 m/s 752 mmHg 79%
    06:00 +21°C° 0 mm 2 m/s 752 mmHg 78%
    07:00 +24°C° 0 mm 2 m/s 752 mmHg 71%
    08:00 +25°C° 0 mm 3 m/s 752 mmHg 64%
    09:00 +27°C° 0 mm 4 m/s 752 mmHg 57%
    10:00 +28°C° 0 mm 4 m/s 752 mmHg 57%
    11:00 +29°C° 0 mm 5 m/s 751 mmHg 58%
    12:00 +30°C° 0 mm 5 m/s 751 mmHg 58%
    13:00 +30°C° 0.2 mm 5 m/s 751 mmHg 59%
    14:00 +29°C° 0.2 mm 4 m/s 751 mmHg 61%
    15:00 +29°C° 0.2 mm 4 m/s 751 mmHg 62%
    16:00 +29°C° 0 mm 4 m/s 751 mmHg 63%
    17:00 +29°C° 0 mm 4 m/s 750 mmHg 64%
    18:00 +29°C° 0 mm 4 m/s 750 mmHg 65%
    19:00 +28°C° 0 mm 4 m/s 751 mmHg 66%
    20:00 +27°C° 0 mm 4 m/s 751 mmHg 68%
    21:00 +25°C° 0 mm 4 m/s 751 mmHg 69%
    22:00 +24°C° 0 mm 3 m/s 751 mmHg 70%
    23:00 +24°C° 0 mm 3 m/s 752 mmHg 72%

    26 Juillet, Vendredi

    Heure Température Précipitation Vent Pression Humidité
    00:00 +22°C° 0 mm 3 m/s 752 mmHg 74%
    01:00 +21°C° 0 mm 3 m/s 752 mmHg 76%
    02:00 +20°C° 0 mm 3 m/s 752 mmHg 78%
    03:00 +20°C° 0 mm 3 m/s 752 mmHg 80%
    04:00 +20°C° 0 mm 3 m/s 752 mmHg 80%
    05:00 +19°C° 0 mm 3 m/s 752 mmHg 80%
    06:00 +19°C° 0 mm 3 m/s 753 mmHg 79%
    07:00 +20°C° 0 mm 3 m/s 753 mmHg 75%
    08:00 +21°C° 0 mm 3 m/s 753 mmHg 71%
    09:00 +22°C° 0 mm 4 m/s 753 mmHg 67%
    10:00 +23°C° 0 mm 4 m/s 753 mmHg 65%
    11:00 +23°C° 0 mm 4 m/s 753 mmHg 63%
    12:00 +25°C° 0 mm 4 m/s 753 mmHg 60%
    13:00 +25°C° 0 mm 5 m/s 753 mmHg 60%
    14:00 +26°C° 0 mm 5 m/s 753 mmHg 59%
    15:00 +26°C° 0 mm 5 m/s 753 mmHg 58%
    16:00 +26°C° 0 mm 5 m/s 753 mmHg 59%
    17:00 +25°C° 0 mm 4 m/s 753 mmHg 61%
    18:00 +25°C° 0 mm 4 m/s 753 mmHg 62%
    19:00 +24°C° 0 mm 3 m/s 753 mmHg 64%
    20:00 +22°C° 0 mm 3 m/s 753 mmHg 67%
    21:00 +20°C° 0 mm 3 m/s 753 mmHg 69%
    22:00 +20°C° 0 mm 3 m/s 753 mmHg 72%
    23:00 +19°C° 0 mm 3 m/s 753 mmHg 75%

    27 Juillet, Samedi

    Heure Température Précipitation Vent Pression Humidité
    00:00 +18°C° 0 mm 3 m/s 754 mmHg 78%
    01:00 +18°C° 0 mm 2 m/s 753 mmHg 81%
    02:00 +17°C° 0 mm 2 m/s 753 mmHg 83%
    03:00 +17°C° 0 mm 2 m/s 753 mmHg 86%
    04:00 +17°C° 0 mm 2 m/s 753 mmHg 85%
    05:00 +17°C° 0 mm 2 m/s 753 mmHg 85%
    06:00 +17°C° 0 mm 2 m/s 753 mmHg 85%
    07:00 +17°C° 0 mm 2 m/s 753 mmHg 84%
    08:00 +18°C° 0 mm 3 m/s 754 mmHg 83%
    09:00 +18°C° 0 mm 3 m/s 754 mmHg 83%
    10:00 +19°C° 0.1 mm 3 m/s 754 mmHg 78%
    11:00 +19°C° 0.1 mm 2 m/s 754 mmHg 74%
    12:00 +20°C° 0.1 mm 2 m/s 754 mmHg 69%
    13:00 +20°C° 0.1 mm 3 m/s 754 mmHg 68%
    14:00 +20°C° 0.1 mm 3 m/s 753 mmHg 66%
    15:00 +20°C° 0.1 mm 3 m/s 753 mmHg 65%
    16:00 +20°C° 0 mm 3 m/s 753 mmHg 66%
    17:00 +20°C° 0 mm 3 m/s 753 mmHg 66%
    18:00 +20°C° 0 mm 2 m/s 753 mmHg 67%
    19:00 +19°C° 0 mm 2 m/s 753 mmHg 71%
    20:00 +19°C° 0 mm 1 m/s 753 mmHg 74%
    21:00 +18°C° 0 mm 1 m/s 754 mmHg 77%
    22:00 +18°C° 0 mm 1 m/s 753 mmHg 76%
    23:00 +18°C° 0 mm 1 m/s 753 mmHg 74%
    Voir plus